Theta_e
327 318 313 314 298 293 290 296 300 301 303 307 324 326 325 328 329 322 344 354 362 362 365 365 366 366 365 363 362 360 360 361 361 362 362 362 361 362 362 362 364 363 361 358 356 354 354 355 356
323 318 312 303 293 287 289 296 297 301 304 312 318 321 323 326 334 336 339 361 362 362 363 363 366 365 365 363 361 361 361 361 361 361 362 362 361 362 363 363 363 363 359 356 356 355 354 354 354
315 317 303 298 291 289 290 297 300 304 304 304 306 320 323 323 335 336 345 360 361 359 363 363 365 364 364 362 361 361 361 361 360 361 361 361 361 362 362 363 363 362 359 358 357 356 356 354 353
309 304 300 294 291 296 297 301 302 304 305 305 309 316 322 331 333 340 356 360 357 358 362 365 364 364 363 361 361 361 361 361 360 361 362 361 361 362 362 363 363 363 360 359 357 357 357 355 354
305 298 292 290 292 296 301 302 302 301 301 303 306 314 318 330 344 347 356 356 356 357 360 363 364 364 364 362 361 362 361 361 361 361 362 361 361 361 362 362 363 363 361 359 357 356 355 354 354
296 296 289 286 291 297 298 299 301 300 301 303 309 313 316 327 338 346 357 356 359 357 359 361 365 364 363 362 362 361 361 360 361 361 361 361 361 361 362 362 362 362 361 359 357 356 354 352 351
293 290 287 288 292 293 298 300 299 298 300 302 303 304 309 315 329 348 357 358 358 358 357 359 362 363 363 361 361 361 361 360 360 359 360 361 361 361 361 361 361 360 359 358 357 354 353 351 349
296 291 288 287 290 290 298 299 297 299 300 306 306 300 300 309 314 344 357 357 356 356 356 357 359 360 359 359 361 361 361 360 360 360 360 360 360 361 361 358 359 359 358 357 355 353 351 349 348
296 288 283 287 293 294 298 298 302 303 301 303 304 304 307 311 313 309 334 350 353 355 355 355 357 358 357 357 359 360 361 360 360 360 360 357 355 357 359 358 359 359 358 356 354 352 350 348 348
295 288 290 296 295 295 296 297 300 302 301 301 304 307 309 310 308 308 307 329 350 352 352 354 355 355 354 356 356 355 357 357 356 356 356 354 354 354 356 357 359 359 357 355 353 352 350 349 337
295 292 296 298 299 300 297 296 300 299 298 301 301 304 307 308 307 304 305 307 339 350 353 354 353 353 353 354 354 353 355 355 355 355 354 351 351 352 352 348 354 350 354 345 348 345 342 337 334
295 299 298 299 300 298 298 300 298 300 301 305 306 306 306 306 305 306 305 306 306 332 351 351 351 350 351 353 353 352 353 353 350 352 352 348 344 346 344 348 348 346 345 340 338 337 336 334 333
294 297 300 301 300 299 301 300 302 298 304 305 305 307 305 305 305 305 307 307 307 338 349 348 350 348 348 351 351 352 352 351 350 350 351 347 341 344 345 347 347 344 341 338 334 333 332 332 331
298 298 299 299 299 299 298 300 299 302 304 305 305 304 305 304 305 304 305 306 305 311 342 350 351 349 347 351 350 351 352 351 350 349 350 347 342 343 345 346 345 343 341 339 334 333 332 332 332
298 296 299 301 299 296 297 295 295 300 301 301 302 303 304 305 306 305 306 305 306 307 320 345 350 351 347 349 349 349 351 351 350 350 350 348 343 341 344 345 344 344 342 338 334 335 334 333 333
296 292 288 296 297 298 295 289 297 300 299 299 301 302 303 302 304 305 307 306 306 307 312 323 348 349 348 347 348 348 348 349 350 350 351 350 344 344 340 345 344 345 341 340 337 333 332 331 328
291 287 288 290 296 295 293 290 296 300 299 299 300 301 301 302 304 304 306 306 306 308 310 313 326 344 348 348 348 346 344 344 345 347 349 350 349 346 342 342 345 344 341 339 338 330 329 326 325
286 286 288 288 293 293 290 291 296 298 298 298 300 301 301 302 303 305 306 308 308 308 309 314 318 340 343 345 346 346 345 347 347 345 345 349 349 347 344 343 341 341 341 337 331 329 328 325 327
292 290 289 292 295 293 290 291 296 296 297 298 299 298 300 302 305 306 306 307 309 309 309 314 314 320 342 338 338 338 342 343 346 348 345 344 347 345 345 343 340 340 337 335 330 327 328 328 334
294 290 291 293 296 292 291 292 295 297 296 296 301 301 301 305 307 308 306 306 307 309 309 315 317 318 337 343 341 339 341 343 345 347 348 345 345 344 345 342 340 338 334 333 330 331 330 329 337
293 290 290 290 294 293 291 290 293 296 299 302 303 303 304 304 305 307 308 307 307 308 309 314 320 319 324 342 340 337 337 338 337 343 343 346 345 344 344 343 342 338 336 334 331 332 331 330 336
288 295 294 292 288 282 291 282 289 292 295 299 301 300 303 305 307 309 310 310 306 307 310 313 320 321 324 333 339 337 336 335 337 340 343 344 345 344 343 342 341 339 336 333 336 335 332 331 332
292 296 293 291 287 284 286 282 285 293 293 297 301 302 304 305 307 309 310 311 314 315 308 312 319 323 325 329 335 338 334 337 337 337 340 344 342 344 344 343 342 338 336 335 340 338 336 334 332
297 292 290 288 284 277 284 284 283 289 294 298 303 304 305 305 306 309 311 311 312 315 316 316 320 324 325 329 334 336 335 337 338 335 337 340 343 342 343 345 343 341 338 338 340 340 338 335 333
292 285 276 276 275 277 287 285 286 295 299 300 301 303 304 305 304 305 308 309 311 313 314 317 320 319 324 328 329 336 337 338 338 337 337 338 340 342 342 342 342 342 339 340 343 339 337 336 330
288 285 277 275 275 280 289 282 287 298 301 303 304 304 304 303 302 304 306 308 309 312 313 314 315 318 320 324 325 327 337 340 339 335 333 337 340 341 342 340 340 341 343 341 340 337 332 325 321
289 281 289 279 282 278 282 288 294 298 300 301 301 301 299 301 301 303 305 307 307 308 310 312 315 317 323 322 325 328 330 336 338 335 332 334 338 340 341 340 336 339 342 339 337 331 325 322 317
290 292 283 283 273 275 280 282 284 292 293 298 297 295 296 299 300 301 303 305 306 307 309 313 317 317 318 330 331 331 331 333 333 331 332 330 335 337 340 339 339 341 341 339 328 324 322 319 317
288 285 288 289 284 279 277 279 289 292 292 294 293 295 295 296 298 300 302 303 304 306 307 310 311 317 319 319 322 328 328 330 330 331 330 330 329 330 336 337 339 335 332 329 322 321 320 317 315
292 288 288 277 280 282 283 282 295 293 297 295 295 296 295 296 297 298 299 301 303 304 306 307 309 314 318 318 319 327 324 325 326 329 331 330 328 330 330 335 334 333 329 326 322 318 316 314 311
Wind_Speed
7 6 1 4 5 6 4 5 4 6 3 6 5 11 6 6 2 6 2 8 15 15 12 12 16 17 17 17 16 15 14 15 15 14 13 16 17 18 16 16 15 14 13 13 12 11 10 9 8
4 5 4 2 6 3 6 6 2 4 4 9 6 6 8 5 5 6 6 11 14 15 12 11 16 17 16 17 17 15 14 15 16 16 14 14 15 15 14 13 13 12 12 12 11 10 8 7 5
3 0 4 4 3 4 3 5 7 8 5 1 5 4 4 3 4 3 5 14 15 12 11 12 15 16 16 18 18 16 15 14 15 16 15 14 13 13 13 12 11 11 12 11 10 9 7 6 4
3 5 5 4 4 7 3 10 8 7 5 10 5 8 5 2 4 5 10 13 12 8 8 15 16 17 16 16 17 17 16 15 15 16 16 15 14 12 11 11 11 11 11 9 8 7 5 4 2
4 4 4 3 6 5 6 14 10 8 3 7 4 4 6 4 7 7 12 13 14 9 6 9 15 17 18 17 16 16 16 16 16 17 16 15 14 13 11 11 10 10 9 9 7 6 4 3 0
4 4 5 2 6 6 5 9 8 8 8 8 9 4 3 2 6 5 13 11 12 14 9 8 11 13 15 18 16 15 17 16 17 17 17 16 15 14 13 11 10 10 9 8 7 6 5 4 3
5 4 3 3 6 4 5 8 10 6 9 9 2 5 3 5 4 7 10 8 8 8 10 9 9 10 13 15 17 15 15 16 16 16 16 16 15 14 13 11 10 9 8 7 7 6 6 5 5
6 5 3 3 6 1 7 5 4 7 4 9 3 3 3 3 4 7 11 11 9 7 7 8 8 8 7 8 16 16 15 16 16 15 15 15 15 14 13 11 11 10 9 8 7 7 6 6 6
4 6 1 3 6 5 6 8 7 4 4 2 5 2 3 5 5 4 3 4 5 7 9 8 9 10 10 7 10 14 16 15 15 14 15 11 7 9 11 10 11 11 10 9 8 7 6 7 8
6 5 6 5 3 5 3 3 5 8 9 6 9 13 9 7 5 6 1 5 7 8 8 10 10 9 9 9 9 8 9 8 8 8 10 7 8 7 8 9 12 11 10 9 8 8 7 6 4
3 3 4 5 5 5 2 3 3 2 7 8 7 8 9 3 9 4 3 4 9 6 6 10 10 10 11 9 7 6 5 6 6 8 9 7 6 5 4 3 5 4 9 4 5 4 4 5 4
2 5 1 5 5 6 8 5 4 6 11 10 10 7 4 9 6 9 5 5 5 8 11 7 8 8 10 7 7 8 6 6 7 9 11 6 5 6 4 4 5 5 3 5 5 3 4 5 6
1 5 9 9 11 9 7 11 16 6 14 11 10 9 8 9 10 8 9 6 5 6 8 10 10 11 9 8 7 8 8 8 8 7 10 6 6 8 6 6 6 5 4 5 5 5 4 5 5
4 8 10 6 10 7 6 12 6 11 7 9 8 11 11 9 11 7 8 9 7 8 9 9 11 13 10 11 10 10 9 10 9 8 9 11 7 7 8 7 7 6 6 5 5 5 5 5 4
3 10 12 12 5 6 4 10 4 5 7 7 9 10 10 10 10 10 11 10 10 8 9 9 13 12 14 13 12 8 9 10 10 9 11 12 9 7 9 8 7 8 7 6 4 4 3 3 4
6 1 3 8 4 7 3 10 9 11 9 11 6 7 9 10 10 9 10 10 10 8 9 10 8 11 12 11 11 9 7 8 9 10 9 14 13 11 9 8 8 8 5 6 5 4 4 4 4
4 5 6 7 7 5 5 10 6 8 9 14 15 13 11 13 13 10 11 10 11 11 10 10 10 9 12 11 9 10 8 6 6 7 9 14 14 14 9 9 8 8 6 6 6 3 4 4 3
8 5 6 7 7 4 3 10 8 7 8 14 16 17 15 14 17 16 13 11 11 10 10 10 10 12 10 8 7 5 6 5 3 4 8 13 12 13 11 9 10 8 7 6 4 5 3 4 4
8 7 8 7 4 5 3 11 13 5 9 16 17 13 13 15 16 17 14 14 11 10 10 10 10 11 8 4 4 3 7 6 5 3 8 8 12 13 14 9 10 9 9 10 8 5 7 3 3
11 8 15 11 3 2 6 19 10 8 7 6 8 10 8 12 15 17 12 13 11 14 13 10 12 12 10 8 5 4 6 7 9 11 5 7 9 13 15 12 9 9 6 7 8 6 3 3 5
10 9 10 8 6 2 5 14 12 11 1 5 7 6 7 7 13 12 15 12 16 11 11 12 12 13 14 13 4 3 4 4 3 5 10 7 13 14 14 13 12 9 9 9 7 6 8 5 3
3 10 6 12 8 4 5 20 7 8 6 5 8 8 8 11 15 14 15 16 13 11 9 13 13 12 12 14 11 9 8 7 5 7 9 10 12 14 9 9 13 11 8 7 8 6 5 6 6
4 11 7 8 3 0 3 7 6 6 6 8 10 9 9 11 13 13 12 12 11 15 7 8 13 13 13 14 13 11 7 6 5 4 9 11 10 12 11 11 9 11 9 8 10 8 6 4 5
8 8 6 3 2 3 1 3 6 3 7 8 14 11 10 11 12 12 11 12 13 15 15 6 6 11 11 14 13 13 12 9 8 6 6 6 7 9 12 8 9 11 11 11 10 8 9 5 5
10 7 6 8 6 5 2 9 9 5 5 5 8 9 9 9 8 10 14 14 16 14 16 13 7 8 9 12 12 12 12 12 12 9 6 7 7 6 12 8 10 3 4 7 7 7 7 7 5
5 4 5 6 3 14 4 6 5 6 8 4 4 6 7 3 5 10 12 13 13 15 13 15 13 13 7 10 12 11 11 8 8 7 4 7 7 8 13 10 13 11 10 8 5 4 3 6 7
5 2 4 0 3 3 4 6 7 8 7 5 9 9 9 9 8 9 12 14 12 15 14 11 12 10 9 7 7 8 7 7 7 6 6 6 7 7 11 11 10 16 17 7 7 7 8 9 7
2 4 2 3 3 5 5 6 9 6 6 7 8 6 6 9 13 11 9 11 12 15 14 10 9 6 9 6 4 2 1 4 5 4 6 7 8 5 11 15 13 13 11 10 14 10 6 11 6
5 3 3 3 4 3 5 6 4 14 5 8 4 5 7 9 10 12 13 12 12 13 14 11 6 3 7 6 3 5 3 3 3 4 5 6 4 5 10 12 10 7 13 15 16 15 10 9 9
6 7 4 4 5 6 8 13 12 3 4 4 4 6 7 7 8 12 14 16 14 15 12 12 9 2 1 9 6 4 6 8 5 5 5 6 7 6 6 10 10 13 21 16 21 16 11 10 8
Wind_Direction
320 304 119 40 48 58 301 287 228 298 43 341 58 99 92 31 40 149 214 133 137 148 149 154 147 140 141 137 132 130 128 128 126 124 126 128 131 132 132 131 129 131 130 129 127 127 126 121 114
339 339 45 71 83 47 286 257 347 274 164 148 98 107 58 55 46 101 102 141 144 145 147 154 151 144 147 142 135 133 135 137 133 130 128 128 130 129 127 124 126 127 127 126 125 125 120 112 105
297 60 83 97 102 187 208 285 318 291 308 115 117 77 91 102 41 74 135 139 138 148 147 152 151 147 151 148 140 139 141 143 138 134 132 131 126 124 122 122 122 124 130 134 136 134 129 126 124
22 10 22 86 239 256 224 290 253 274 324 0 130 88 53 227 122 123 145 132 127 133 140 149 153 153 152 150 147 145 149 150 148 142 140 136 131 129 129 132 136 138 141 141 139 134 131 129 133
35 58 44 8 275 283 315 334 320 35 64 356 336 51 91 21 103 92 122 127 131 123 127 149 160 159 153 155 156 154 156 156 157 152 150 146 141 140 138 139 142 144 146 151 147 142 152 158 181
30 93 49 305 274 326 341 343 8 30 353 17 47 64 54 208 95 92 119 135 135 142 145 152 165 162 159 155 163 166 162 164 164 160 159 154 151 150 150 151 151 153 157 157 161 165 171 182 223
111 81 215 252 281 6 349 320 18 356 16 12 142 71 330 48 143 119 120 118 122 133 143 149 155 165 168 165 163 171 169 168 168 166 163 160 158 157 157 155 155 154 156 167 170 178 185 202 232
117 92 358 338 319 304 321 10 325 25 24 300 52 75 277 283 158 142 139 142 141 145 146 153 152 155 164 177 170 172 177 172 170 170 168 164 163 161 161 159 159 166 171 180 185 194 195 210 239
110 65 19 335 330 267 305 14 320 274 20 4 316 102 177 271 341 78 58 109 134 159 160 167 169 168 163 172 185 175 178 178 174 172 170 162 166 164 167 169 169 172 179 187 195 205 210 225 245
97 104 219 220 247 263 189 64 311 355 347 336 339 330 348 354 75 42 154 245 179 183 183 175 168 175 171 174 176 180 176 177 179 175 170 168 173 170 166 172 174 178 187 195 206 209 218 238 256
328 172 189 274 250 298 313 212 217 201 296 278 267 283 312 358 335 9 322 182 218 230 185 184 173 175 176 181 162 180 184 176 182 182 178 169 164 175 166 166 180 176 191 202 210 215 223 229 252
11 311 16 279 343 337 311 293 277 190 239 240 249 217 260 293 278 290 259 260 258 203 205 168 170 179 187 170 173 170 178 182 191 191 189 176 165 175 168 179 185 181 189 202 206 211 228 235 250
64 319 325 321 322 312 316 308 285 244 265 266 259 267 267 258 267 255 252 224 258 214 201 187 169 173 184 177 179 171 180 186 191 188 189 187 182 180 176 181 182 190 192 200 208 214 224 229 243
291 312 298 296 305 299 315 292 5 285 297 294 293 280 272 259 250 250 248 255 232 208 213 198 184 180 170 178 192 183 181 186 189 190 193 189 193 184 184 182 191 198 201 204 203 198 214 228 216
289 332 322 304 310 295 307 327 274 293 312 277 278 291 288 281 279 240 237 222 232 227 211 202 191 185 182 179 185 194 190 184 189 195 192 196 187 185 187 186 196 207 202 202 199 218 207 246 244
328 153 310 293 6 288 83 279 296 328 354 334 312 275 278 270 261 271 252 235 233 231 187 209 215 187 183 180 181 183 198 192 201 191 190 196 196 186 188 191 200 204 187 196 197 184 206 229 214
342 255 246 300 242 260 57 288 311 333 340 318 314 306 301 299 292 267 247 237 241 209 211 194 203 202 189 187 180 178 187 184 204 207 195 197 196 199 190 197 204 199 188 198 196 186 172 193 192
269 236 251 259 286 70 350 274 302 309 313 302 304 300 301 289 279 272 257 239 230 238 218 197 189 193 190 184 190 181 178 175 178 211 219 202 200 196 195 199 201 195 194 204 174 173 186 183 158
258 275 271 270 217 331 265 272 301 313 297 293 294 300 298 305 299 291 268 249 232 231 215 214 174 198 176 146 156 180 203 211 209 237 227 220 211 197 197 199 198 185 188 199 175 155 174 175 150
326 310 298 295 245 284 308 288 303 310 266 272 293 308 326 310 308 294 287 275 247 226 211 211 195 184 187 189 180 166 169 206 208 210 236 202 216 206 204 193 190 183 179 174 180 159 136 155 176
293 330 307 275 310 182 299 293 317 303 301 295 314 295 280 322 301 316 303 300 265 228 208 201 203 187 188 190 163 91 78 78 166 230 221 220 207 213 213 197 188 181 183 188 181 163 153 163 183
294 328 315 320 343 298 91 289 322 283 303 297 320 326 312 339 11 3 5 341 322 257 242 200 200 193 189 187 187 184 189 190 191 194 214 210 204 216 228 204 189 185 189 178 176 175 170 141 166
261 312 284 278 281 22 224 268 321 345 321 313 319 327 324 350 12 355 1 331 335 2 287 236 202 200 190 184 186 186 183 192 201 186 195 211 195 204 205 208 209 191 180 183 177 176 170 167 145
300 342 325 347 57 38 244 95 270 296 280 314 328 332 336 358 355 347 350 357 354 358 15 336 263 206 187 183 184 183 187 194 208 209 195 204 205 199 201 213 206 212 180 185 185 178 171 172 143
23 29 328 350 1 230 0 314 262 282 324 301 321 313 340 10 335 331 2 357 352 356 1 9 344 288 209 189 185 188 191 199 209 205 196 195 215 187 191 163 200 314 282 204 179 170 153 162 132
312 139 164 285 273 291 274 241 251 263 285 264 291 277 27 37 345 357 350 347 350 342 350 349 350 318 265 215 195 195 196 198 205 193 178 203 214 200 190 187 166 200 241 237 179 137 141 107 118
295 8 244 81 259 313 245 289 303 272 308 343 320 21 6 5 3 358 347 344 340 340 325 333 333 334 267 242 265 182 177 180 199 190 179 205 211 195 187 176 182 217 203 174 126 133 129 117 111
79 198 198 10 304 273 271 257 256 266 275 327 340 359 332 350 351 345 339 329 333 330 317 310 310 345 331 269 210 246 231 185 195 168 210 202 216 178 174 183 197 217 216 148 113 102 92 108 92
325 333 47 147 200 273 291 256 260 268 275 264 270 360 354 348 344 341 333 323 317 315 315 309 293 3 332 324 244 124 68 5 200 218 237 204 195 167 147 173 168 165 120 147 94 97 81 83 86
200 207 151 135 279 243 265 279 276 184 213 135 340 320 318 321 321 325 317 312 308 304 307 306 301 335 25 306 291 78 57 357 308 238 214 179 163 166 145 152 145 149 127 122 115 117 110 96 93